Wind_Speed
11 11 11 12 12 12 12 13 13 12 12 13 13 13 13 13 13 13 13 13 13 13 14 14 13 14 14 15 15 16 16 16 15 15 16 17 17 17
12 13 13 13 13 13 13 14 14 14 13 13 13 14 14 13 14 15 15 15 15 15 15 16 15 15 16 16 16 17 17 17 17 17 17 17 17 17
14 14 14 14 14 14 14 15 16 16 15 14 15 14 14 15 15 16 17 17 17 17 17 17 17 17 17 17 18 19 19 19 19 19 18 18 18 18
16 15 16 16 16 16 16 16 17 17 16 17 17 16 16 17 17 18 19 19 19 19 19 19 20 20 20 20 20 20 20 21 21 21 21 20 20 20
17 17 17 17 17 17 17 18 18 18 19 19 18 18 19 19 19 20 20 21 22 21 22 22 22 22 22 22 22 22 22 22 22 21 22 22 22 22
18 18 18 19 18 18 18 19 20 20 21 21 21 21 21 21 21 21 21 22 22 23 23 23 23 23 23 23 24 23 23 24 23 22 22 23 23 24
19 19 20 20 19 19 20 20 21 21 22 22 22 23 23 23 23 23 23 23 23 24 24 24 23 23 24 25 25 25 25 25 25 24 24 24 25 25
20 20 21 20 21 21 22 22 23 23 24 25 25 25 25 25 25 25 24 24 24 25 25 26 25 25 25 25 25 25 26 26 27 27 27 26 25 25
22 22 22 22 22 23 24 24 25 26 26 26 27 27 26 26 26 26 26 26 26 26 26 26 26 26 26 26 26 26 26 27 27 27 27 26 25 26
23 23 22 23 24 24 25 26 26 26 27 27 27 27 27 27 27 27 27 27 27 27 26 26 27 26 26 27 28 28 27 27 27 27 27 27 26 26
24 24 24 24 25 25 26 26 26 27 27 27 27 27 27 27 27 27 27 27 27 28 29 29 28 28 28 28 29 29 28 27 27 28 28 28 28 27
25 26 26 25 26 26 26 27 27 27 27 27 27 28 28 27 28 28 28 28 29 29 30 30 30 30 29 30 30 29 29 28 28 28 29 29 29 29
27 26 26 27 27 27 27 28 27 28 27 27 28 28 28 29 29 30 30 30 30 30 31 32 32 32 31 30 30 29 29 29 29 30 30 29 29 30
28 28 28 27 27 27 28 28 28 28 28 29 29 29 30 30 31 31 31 31 31 31 31 31 31 31 31 30 30 30 30 31 31 31 31 31 30 30
28 28 28 28 28 28 28 29 29 29 29 29 30 30 31 31 31 31 31 31 31 31 32 32 31 31 30 30 30 30 31 32 32 32 32 32 32 32
28 29 29 29 29 29 29 29 30 30 31 30 31 31 31 31 31 31 31 31 31 31 31 31 31 31 31 31 31 31 32 33 33 33 33 33 33 33
30 31 31 31 30 30 31 30 31 31 31 31 31 31 31 31 31 31 31 31 32 32 32 32 32 32 31 31 31 32 32 33 33 33 33 33 33 33
32 32 32 31 31 31 30 31 31 31 31 31 31 31 32 32 32 32 32 33 33 32 32 32 31 31 32 32 32 32 32 33 33 33 33 33 33 33
32 32 33 32 31 31 31 31 31 31 32 32 32 32 32 32 32 32 32 33 32 31 31 32 32 31 31 32 32 32 33 33 33 33 32 32 32 33
33 33 33 33 32 32 32 32 32 32 32 33 32 32 32 32 32 32 32 32 32 32 31 32 32 32 32 32 32 32 33 33 33 33 33 33 33 34
34 33 33 32 32 32 32 32 33 32 32 33 33 32 32 32 33 33 32 32 32 32 32 32 32 32 32 33 32 32 32 33 33 33 33 33 33 34
33 33 32 32 33 33 33 32 32 33 33 33 33 33 33 33 33 33 32 32 32 32 33 32 32 32 32 32 31 31 31 32 33 34 34 33 33 32
33 33 34 34 33 34 33 33 33 32 32 32 33 33 34 33 33 33 33 32 32 32 32 32 32 32 33 33 32 32 32 32 32 32 32 33 33 32
Wind_Direction
298 299 300 303 306 306 307 307 305 303 304 304 307 306 302 298 296 294 292 292 288 286 285 286 289 289 288 286 281 276 275 274 275 273 272 270 270 269
299 299 300 301 305 306 306 307 307 306 303 302 302 303 301 297 296 295 293 290 286 284 283 284 285 287 284 282 281 277 275 275 275 273 274 272 268 269
295 296 298 298 300 303 304 304 306 306 302 299 299 299 298 297 295 293 292 290 287 284 283 282 281 282 282 281 279 278 275 273 273 273 274 271 269 268
293 294 294 294 295 298 301 301 302 301 300 298 295 294 295 293 292 292 291 290 288 284 281 279 279 280 279 278 278 277 277 274 273 274 271 269 269 268
291 291 292 293 294 294 297 297 298 297 296 297 296 294 294 293 291 290 290 289 287 285 283 280 279 280 280 278 276 275 277 277 275 274 273 271 269 268
291 292 294 294 294 293 294 296 296 295 295 295 294 293 291 291 290 290 289 287 285 285 285 284 282 281 280 279 277 275 275 276 276 275 273 270 269 268
291 292 292 293 293 293 293 293 294 293 293 293 292 292 290 288 288 288 287 286 285 285 284 284 284 282 279 278 279 276 274 274 275 275 274 271 268 268
290 292 292 293 292 292 293 293 292 292 291 290 291 292 290 287 285 285 285 284 283 283 283 284 284 283 281 280 279 277 276 275 274 273 272 272 269 269
291 291 292 291 291 291 293 292 291 291 292 291 291 291 291 288 286 284 283 282 282 282 282 282 283 283 281 280 280 279 277 274 273 271 271 270 270 271
289 288 289 290 291 291 291 292 291 291 292 292 292 291 290 290 288 285 283 282 282 282 280 279 281 282 281 280 279 278 277 274 272 271 270 269 270 271
287 288 289 290 290 290 290 290 290 292 292 291 291 290 289 291 291 288 285 282 281 282 282 282 280 280 281 281 280 278 276 275 273 271 270 269 270 270
288 287 289 290 290 290 290 290 291 291 292 292 291 290 290 290 290 290 288 286 283 282 282 282 281 280 280 279 278 277 276 275 273 271 270 269 270 270
288 287 288 289 289 290 290 291 290 290 291 292 291 292 291 291 291 290 289 288 286 284 282 281 281 280 279 277 276 276 275 274 273 272 270 269 269 270
288 287 287 288 289 291 292 292 291 291 291 292 293 292 291 291 291 291 290 289 287 286 285 283 282 280 279 276 274 274 275 274 272 272 270 269 268 270
288 286 286 287 289 290 290 291 292 292 293 294 293 292 291 291 290 290 290 289 288 286 284 284 283 282 280 277 275 274 273 272 271 270 268 268 269 270
287 287 287 287 288 289 290 292 293 292 293 293 293 292 291 290 290 289 289 288 286 285 284 283 282 282 281 280 277 276 274 272 270 269 268 268 269 270
288 289 287 286 287 288 290 291 293 294 294 294 293 293 291 290 290 290 290 288 286 284 283 282 281 281 281 281 280 278 275 273 271 270 268 267 267 267
288 288 287 286 287 290 291 292 294 294 294 294 293 293 292 291 291 291 290 289 288 287 285 283 282 281 281 280 279 278 276 273 271 270 269 269 268 267
289 288 286 285 288 291 292 292 292 292 292 293 292 292 291 290 291 291 291 290 288 288 286 284 284 283 283 282 280 277 275 273 271 271 270 270 269 267
288 287 286 286 288 289 289 290 291 292 292 292 292 291 290 290 291 292 291 290 289 288 287 285 285 284 283 282 280 277 275 273 271 271 270 269 268 266
287 286 286 287 288 289 289 290 291 291 291 291 291 290 290 291 292 292 291 290 288 286 287 286 285 285 283 281 280 279 277 274 272 271 270 269 267 266
287 286 287 287 288 288 289 289 289 290 290 290 289 290 291 292 292 292 291 290 288 287 287 287 286 285 283 282 281 280 278 276 274 272 270 268 267 266
287 287 287 288 288 288 289 288 288 289 290 290 289 289 290 291 291 291 291 290 289 288 288 288 287 285 284 282 281 280 277 275 274 272 270 268 267 266
Height
5862 5861 5860 5858 5857 5856 5854 5853 5851 5850 5848 5846 5844 5842 5840 5839 5837 5836 5835 5833 5832 5831 5830 5829 5828 5827 5826 5825 5824 5823 5823 5822 5821 5821 5820 5820 5820 5820
5858 5857 5856 5855 5853 5852 5850 5849 5847 5846 5844 5843 5841 5839 5837 5835 5834 5832 5831 5829 5828 5827 5826 5824 5824 5822 5821 5820 5820 5819 5818 5818 5817 5816 5816 5816 5815 5815
5854 5853 5852 5851 5849 5848 5846 5845 5843 5841 5840 5838 5837 5835 5833 5831 5829 5828 5826 5825 5823 5822 5821 5819 5818 5817 5816 5815 5815 5814 5813 5812 5812 5811 5811 5810 5810 5810
5850 5849 5848 5846 5845 5843 5842 5840 5838 5837 5835 5833 5832 5830 5828 5826 5825 5823 5821 5819 5817 5816 5815 5813 5812 5811 5810 5810 5809 5808 5807 5807 5806 5806 5805 5805 5804 5804
5845 5844 5843 5841 5840 5838 5837 5835 5833 5832 5830 5828 5826 5824 5823 5821 5819 5817 5815 5813 5811 5810 5808 5807 5806 5804 5803 5803 5802 5801 5801 5800 5799 5799 5799 5798 5798 5798
5840 5839 5837 5836 5834 5833 5832 5830 5828 5826 5824 5822 5821 5819 5817 5815 5813 5811 5809 5807 5805 5804 5802 5800 5799 5797 5796 5796 5795 5794 5794 5793 5792 5792 5792 5792 5791 5791
5835 5833 5832 5830 5829 5827 5826 5824 5822 5820 5818 5816 5814 5812 5810 5808 5806 5804 5802 5800 5799 5797 5795 5794 5792 5791 5790 5789 5788 5787 5787 5786 5785 5785 5784 5784 5784 5784
5829 5827 5825 5824 5822 5821 5819 5817 5816 5814 5812 5810 5807 5805 5803 5801 5799 5797 5795 5793 5791 5790 5788 5787 5785 5784 5782 5781 5780 5779 5779 5778 5778 5777 5777 5777 5776 5776
5823 5821 5819 5817 5816 5814 5812 5810 5808 5806 5804 5802 5800 5797 5795 5793 5791 5789 5787 5786 5784 5782 5781 5779 5778 5776 5774 5773 5772 5772 5771 5770 5770 5769 5769 5769 5768 5768
5816 5814 5812 5811 5809 5807 5805 5803 5801 5798 5796 5794 5792 5789 5786 5784 5782 5781 5779 5777 5776 5774 5773 5772 5770 5768 5767 5765 5764 5763 5762 5762 5761 5761 5761 5760 5760 5760
5809 5807 5805 5804 5802 5799 5798 5795 5793 5790 5788 5786 5783 5781 5778 5776 5773 5772 5770 5769 5768 5766 5764 5763 5761 5760 5759 5757 5756 5755 5754 5753 5753 5752 5752 5752 5752 5752
5802 5800 5798 5796 5794 5791 5789 5787 5785 5783 5780 5778 5775 5773 5770 5768 5765 5763 5762 5760 5759 5757 5755 5754 5752 5751 5750 5748 5747 5746 5745 5744 5744 5743 5743 5743 5743 5743
5794 5792 5790 5788 5786 5784 5782 5779 5777 5774 5772 5770 5767 5765 5762 5760 5757 5755 5753 5751 5749 5748 5746 5744 5743 5741 5740 5739 5738 5736 5736 5735 5735 5734 5734 5734 5734 5734
5786 5784 5782 5780 5778 5776 5774 5771 5769 5766 5764 5761 5759 5756 5754 5751 5748 5746 5743 5741 5739 5738 5736 5734 5733 5731 5730 5729 5728 5727 5726 5726 5725 5725 5725 5724 5724 5724
5778 5776 5774 5772 5770 5768 5765 5763 5760 5758 5755 5753 5750 5747 5744 5742 5739 5737 5734 5732 5730 5728 5726 5724 5723 5721 5720 5719 5719 5718 5717 5716 5715 5715 5715 5715 5714 5714
5769 5767 5765 5763 5761 5759 5757 5754 5752 5749 5746 5744 5741 5738 5735 5732 5730 5728 5725 5723 5721 5719 5716 5714 5713 5711 5710 5709 5708 5708 5707 5706 5706 5705 5705 5704 5704 5704
5761 5759 5757 5754 5752 5750 5748 5745 5743 5740 5737 5735 5732 5729 5726 5723 5721 5718 5715 5713 5711 5709 5707 5705 5703 5701 5700 5699 5698 5697 5696 5696 5695 5695 5694 5694 5694 5694
5752 5749 5747 5745 5743 5741 5738 5736 5733 5730 5728 5725 5722 5719 5717 5714 5711 5708 5706 5703 5701 5699 5697 5695 5694 5692 5690 5689 5688 5687 5686 5685 5685 5684 5684 5684 5684 5684
5742 5740 5737 5735 5733 5730 5728 5726 5724 5721 5718 5715 5712 5710 5707 5704 5702 5699 5696 5693 5691 5689 5687 5685 5683 5681 5680 5679 5678 5676 5675 5674 5674 5673 5673 5673 5673 5673
5732 5730 5727 5725 5722 5720 5718 5716 5713 5711 5708 5705 5702 5700 5697 5695 5692 5690 5687 5684 5681 5679 5677 5675 5673 5671 5669 5669 5667 5666 5664 5663 5663 5663 5662 5662 5662 5662
5722 5719 5717 5714 5712 5710 5707 5705 5702 5700 5697 5695 5692 5689 5687 5685 5682 5679 5677 5674 5671 5669 5667 5665 5663 5661 5659 5657 5656 5655 5654 5653 5652 5651 5651 5651 5651 5651
5711 5708 5706 5704 5702 5699 5696 5694 5692 5690 5687 5684 5682 5679 5677 5674 5672 5669 5666 5664 5661 5659 5657 5655 5652 5650 5648 5647 5645 5645 5644 5642 5641 5639 5639 5639 5639 5639
5700 5698 5696 5693 5691 5688 5686 5683 5681 5679 5676 5674 5672 5669 5667 5664 5662 5659 5656 5653 5651 5649 5646 5644 5642 5640 5638 5636 5635 5634 5633 5632 5630 5629 5628 5628 5628 5628